Flag for Barbados Weather past 2 weeks in Bridgetown, Barbados

Now
81 °F

Partly cloudy.


Feels Like: 87 °F
Forecast: 81 / 86 °F
Wind: 14 mph from East

Location: Grantley Adams

Current Time: Sep 19, 2014 at 12:30:57 AM

Latest Report: Sep 19, 2014 at 12:00 AM


Visibility: N/A

Pressure: 29.92 "Hg

Humidity: 89%

Dew point: 77 °F

Location of BridgetownLocation

Historic Weather in Bridgetown — Graph

°F

Bridgetown temperature yesterday

Maximum temperature yesterday: 86 °F (at 10:00 AM)
Minimum temperature yesterday: 77 °F (at 1:00 PM)
Average temperature yesterday: 81 °F

Past Weeks' High & Low Weather Summary

 TemperatureHumidityPressure
High88 °F (Sep 4, 3:00 PM)94% (Sep 7, 9:00 AM)30.04 "Hg (Sep 7, 9:00 AM)
Low75 °F (Sep 17, 5:00 AM)59% (Sep 9, 12:00 PM)29.86 "Hg (Sep 10, 4:00 PM)
Average83 °F80%29.94 "Hg
* Reported Sep 3 11:00 PM — Sep 18 11:00 PM, Bridgetown, Weather by CustomWeather, © 2014

Note: Actual official high and low records may vary slightly from our data, if they occured in-between our weather recording intervals... More about our weather records

Advertising

Bridgetown weather history for previous 24 hours

 ConditionsComfort  
Time TempWeatherWind HumidityBarometerVisibility
11:00 PM
Sep 18
81 °FPartly cloudy.13 mph89%29.95 "HgN/A
10:00 PM79 °FPartly cloudy.13 mph89%29.95 "HgN/A
9:00 PM79 °FPassing clouds.9 mph89%29.95 "HgN/A
8:00 PM79 °FPassing clouds.13 mph89%29.92 "HgN/A
7:00 PM79 °FPartly cloudy.10 mph89%29.89 "HgN/A
6:00 PM77 °FPassing clouds.12 mph94%29.89 "HgN/A
5:00 PM79 °FPartly sunny.14 mph89%29.89 "HgN/A
4:00 PM81 °FScattered showers. Broken clouds.20 mph89%29.89 "Hg2 mi
3:00 PM79 °FThunderstorms. Partly sunny.16 mph94%29.86 "Hg2 mi
2:00 PM79 °FLight rain. Broken clouds.8 mph89%29.86 "Hg3 mi
1:00 PM77 °FLight rain. Partly sunny.6 mph89%29.92 "Hg4 mi
12:00 PM84 °FBroken clouds.14 mph84%29.92 "Hg4 mi
11:00 AM86 °FBroken clouds.15 mph79%29.95 "HgN/A
10:00 AM86 °FPartly sunny.17 mph79%29.95 "HgN/A
9:00 AM84 °FScattered clouds.15 mph84%29.95 "HgN/A
8:00 AM82 °FScattered showers. Scattered clouds.10 mph89%29.92 "HgN/A
7:00 AM81 °FScattered clouds.12 mph89%29.92 "HgN/A
6:00 AM81 °FPartly sunny.14 mph89%29.89 "HgN/A
5:00 AM81 °FPassing clouds.13 mph89%29.89 "HgN/A
4:00 AM81 °FPassing clouds.14 mph89%29.86 "HgN/A
3:00 AM79 °FPartly cloudy.7 mph94%29.86 "HgN/A
2:00 AM81 °FPassing clouds.14 mph89%29.89 "HgN/A
1:00 AM81 °FPartly cloudy.14 mph89%29.89 "HgN/A
12:00 AM81 °FPassing clouds.14 mph89%29.89 "HgN/A
Weather by CustomWeather, © 2014

See weather overviewHow to use our weather pages